Flag for Austria Weather past 2 weeks in Güssing, Burgenland, Austria

Now
51 °F

Cool.


Feels Like: 51 °F
Forecast: 46 / 68 °F
Wind: 1 mph from West

Location: Murska Sobota

Current Time: Sep 17, 2014 at 4:36:42 AM

Latest Report: Sep 17, 2014 at 4:00 AM


Visibility: N/A

Pressure: 30.11 "Hg

Humidity: 100%

Dew point: 51 °F

Location of GüssingLocation

Historic Weather in Güssing — Graph

°F

Güssing temperature yesterday

Maximum temperature yesterday: 69 °F (at 2:00 PM)
Minimum temperature yesterday: 57 °F (at 11:00 PM)
Average temperature yesterday: 62 °F

Past Weeks' High & Low Weather Summary

 TemperatureHumidityPressure
High80 °F (Sep 9, 3:00 PM)100% (Sep 7, 3:00 AM)30.11 "Hg (Sep 7, 3:00 AM)
Low52 °F (Sep 17, 3:00 AM)58% (Sep 5, 2:00 PM)29.83 "Hg (Sep 13, 4:00 AM)
Average62 °F92%29.98 "Hg
* Reported Sep 2 3:00 AM — Sep 17 3:00 AM, Güssing, Weather by CustomWeather, © 2014

Note: Actual official high and low records may vary slightly from our data, if they occured in-between our weather recording intervals... More about our weather records

Advertising

Güssing weather history for previous 24 hours

 ConditionsComfort  
Time TempWeatherWind HumidityBarometerVisibility
3:00 AM
Sep 17
52 °FCool.No wind100%30.11 "HgN/A
2:00 AM53 °FCool.1 mph99%30.11 "HgN/A
1:00 AM54 °FCool.1 mph99%30.11 "HgN/A
12:00 AM56 °FCool.1 mph99%30.11 "HgN/A
11:00 PM
Sep 16
57 °FCool.1 mph98%30.11 "HgN/A
10:00 PM59 °FCool.1 mph97%30.11 "HgN/A
9:00 PM62 °FCool.1 mph97%30.10 "HgN/A
8:00 PM62 °FFog.2 mph96%30.09 "Hg4 mi
7:00 PM63 °FMild.1 mph96%30.07 "HgN/A
6:00 PM64 °FMild.No wind93%30.06 "HgN/A
5:00 PM66 °FMild.3 mph82%30.06 "HgN/A
4:00 PM67 °FMild.1 mph81%30.06 "HgN/A
3:00 PM67 °FPartly sunny.2 mph74%30.06 "Hg6 mi
2:00 PM69 °FPartly sunny.1 mph72%30.06 "Hg6 mi
1:00 PM67 °FMild.2 mph76%30.08 "HgN/A
12:00 PM66 °FMild.1 mph79%30.08 "HgN/A
11:00 AM63 °FMild.1 mph88%30.09 "HgN/A
10:00 AM61 °FCool.1 mph93%30.09 "HgN/A
9:00 AM61 °FCool.2 mph93%30.07 "HgN/A
8:00 AM60 °FOvercast.2 mph97%30.07 "Hg4 mi
7:00 AM60 °FLight rain. Overcast.2 mph98%30.06 "Hg1 mi
6:00 AM60 °FCool.2 mph98%30.05 "HgN/A
5:00 AM60 °FCool.2 mph98%30.05 "HgN/A
4:00 AM60 °FCool.2 mph98%30.04 "HgN/A
Weather by CustomWeather, © 2014

See weather overviewHow to use our weather pages